| time (UTC) | temp F | wind direction | speed MPH | gust MPH | rain 1hr in | rain 24hr in | rain mn in | humidity % | barometer mb |
| 20260901010020 | 80 | 199 | 1.0 | 6.0 | 0.00 | 0.03 | 0.03 | 48 | 1003.5 |
| 20260901004501 | 83 | 194 | 1.0 | 3.0 | 0.00 | 0.03 | 0.03 | 43 | 1003.5 |
| 20260901003104 | 84 | 210 | 0.0 | 4.0 | 0.00 | 0.03 | 0.03 | 39 | 1003.5 |
| 20260901001553 | 85 | 190 | 1.0 | 5.0 | 0.00 | 0.03 | 0.03 | 36 | 1003.5 |
| 20260901000051 | 85 | 203 | 3.0 | 7.0 | 0.00 | 0.03 | 0.03 | 37 | 1003.4 |
| 20260831234545 | 85 | 206 | 4.0 | 10.0 | 0.00 | 0.03 | 0.03 | 36 | 1003.3 |
| 20260831233040 | 86 | 213 | 4.0 | 10.0 | 0.00 | 0.03 | 0.03 | 35 | 1003.4 |
| 20260831231535 | 87 | 194 | 5.0 | 13.0 | 0.00 | 0.03 | 0.03 | 31 | 1003.4 |
| 20260831230030 | 86 | 244 | 3.0 | 12.0 | 0.00 | 0.03 | 0.03 | 29 | 1003.5 |
| 20260831224527 | 86 | 207 | 4.0 | 12.0 | 0.00 | 0.03 | 0.03 | 28 | 1003.5 |
| 20260831223030 | 87 | 244 | 4.0 | 10.0 | 0.00 | 0.03 | 0.03 | 29 | 1003.5 |
| 20260831221521 | 87 | 226 | 3.0 | 11.0 | 0.00 | 0.03 | 0.03 | 30 | 1003.5 |
| 20260831220013 | 86 | 224 | 5.0 | 15.0 | 0.00 | 0.03 | 0.03 | 29 | 1003.5 |
| 20260831214509 | 86 | 232 | 5.0 | 14.0 | 0.00 | 0.03 | 0.03 | 29 | 1003.4 |
| 20260831213005 | 86 | 219 | 5.0 | 10.0 | 0.00 | 0.03 | 0.03 | 29 | 1003.6 |
| 20260831211613 | 86 | 242 | 6.0 | 14.0 | 0.00 | 0.03 | 0.03 | 29 | 1003.6 |
| 20260831210055 | 86 | 244 | 5.0 | 14.0 | 0.00 | 0.03 | 0.03 | 30 | 1003.8 |
| 20260831204550 | 85 | 238 | 4.0 | 14.0 | 0.00 | 0.03 | 0.03 | 32 | 1003.8 |
| 20260831203045 | 85 | 288 | 8.0 | 14.0 | 0.00 | 0.03 | 0.03 | 31 | 1004.1 |
| 20260831201549 | 84 | 231 | 6.0 | 15.0 | 0.00 | 0.03 | 0.03 | 33 | 1004.0 |
| 20260831200041 | 85 | 277 | 7.0 | 14.0 | 0.00 | 0.03 | 0.03 | 31 | 1004.2 |
| 20260831194605 | 84 | 290 | 6.0 | 13.0 | 0.00 | 0.03 | 0.03 | 32 | 1004.3 |
| 20260831193028 | 84 | 211 | 5.0 | 13.0 | 0.01 | 0.03 | 0.03 | 31 | 1004.6 |
| 20260831191622 | 84 | 243 | 4.0 | 17.0 | 0.01 | 0.03 | 0.03 | 35 | 1004.6 |
| 20260831190022 | 83 | 277 | 1.0 | 9.0 | 0.01 | 0.03 | 0.03 | 35 | 1004.8 |
| 20260831184515 | 82 | 265 | 0.0 | 13.0 | 0.00 | 0.02 | 0.02 | 36 | 1004.8 |
| 20260831183009 | 81 | 281 | 6.0 | 11.0 | 0.00 | 0.02 | 0.02 | 36 | 1004.9 |
| 20260831181505 | 80 | 310 | 3.0 | 11.0 | 0.00 | 0.02 | 0.02 | 44 | 1005.0 |
| 20260831180100 | 80 | 254 | 2.0 | 10.0 | 0.00 | 0.02 | 0.02 | 47 | 1005.2 |
| 20260831174556 | 79 | 281 | 6.0 | 10.0 | 0.00 | 0.02 | 0.02 | 46 | 1005.3 |
| 20260831173051 | 78 | 284 | 5.0 | 11.0 | 0.00 | 0.02 | 0.02 | 50 | 1005.4 |
| 20260831171549 | 76 | 232 | 6.0 | 10.0 | 0.00 | 0.02 | 0.02 | 53 | 1005.4 |
| 20260831170045 | 75 | 289 | 5.0 | 11.0 | 0.00 | 0.02 | 0.02 | 59 | 1005.2 |
| 20260831164539 | 73 | 241 | 1.0 | 8.0 | 0.00 | 0.02 | 0.02 | 65 | 1005.4 |
| 20260831163038 | 71 | 268 | 3.0 | 9.0 | 0.00 | 0.02 | 0.02 | 69 | 1005.6 |
| 20260831161533 | 69 | 184 | 2.0 | 9.0 | 0.00 | 0.02 | 0.02 | 73 | 1005.7 |
| 20260831160026 | 68 | 215 | 2.0 | 7.0 | 0.01 | 0.02 | 0.02 | 73 | 1005.6 |
| 20260831154529 | 66 | 268 | 4.0 | 7.0 | 0.01 | 0.02 | 0.02 | 74 | 1005.7 |
| 20260831153019 | 66 | 278 | 3.0 | 6.0 | 0.01 | 0.02 | 0.02 | 74 | 1005.7 |
| 20260831151512 | 65 | 241 | 3.0 | 8.0 | 0.01 | 0.02 | 0.02 | 69 | 1005.4 |
| 20260831150009 | 63 | 274 | 1.0 | 7.0 | 0.00 | 0.01 | 0.01 | 60 | 1005.2 |
| 20260831144503 | 63 | 251 | 3.0 | 7.0 | 0.00 | 0.01 | 0.01 | 60 | 1005.4 |
| 20260831143104 | 62 | 273 | 1.0 | 6.0 | 0.00 | 0.01 | 0.01 | 42 | 1005.2 |
| 20260831141554 | 60 | 204 | 2.0 | 8.0 | 0.00 | 0.01 | 0.01 | 32 | 1005.4 |
| 20260831140050 | 59 | 230 | 1.0 | 4.0 | 0.00 | 0.01 | 0.01 | 7 | 1005.4 |
| 20260831134546 | 58 | 180 | 2.0 | 9.0 | 0.00 | 0.01 | 0.01 | 1 | 1005.2 |
| 20260831133047 | 57 | 167 | 4.0 | 8.0 | 0.00 | 0.01 | 0.01 | 1 | 1004.9 |
| 20260831131536 | 56 | 204 | 2.0 | 4.0 | 0.00 | 0.01 | 0.01 | 1 | 1004.6 |
| 20260831130132 | 54 | 249 | 0.0 | 2.0 | 0.00 | 0.01 | 0.01 | 1 | 1004.3 |
| 20260831124532 | 53 | 247 | 1.0 | 4.0 | 0.00 | 0.01 | 0.01 | 1 | 1004.0 |
| 20260831123032 | 52 | 257 | 1.0 | 3.0 | 0.00 | 0.01 | 0.01 | 1 | 1003.8 |
| 20260831121528 | 52 | 254 | 1.0 | 3.0 | 0.00 | 0.01 | 0.01 | 1 | 1003.7 |
| 20260831120018 | 53 | 238 | 1.0 | 2.0 | 0.00 | 0.01 | 0.01 | 1 | 1003.6 |
| 20260831114513 | 52 | 275 | 0.0 | 1.0 | 0.00 | 0.01 | 0.01 | 1 | 1003.4 |
| 20260831113009 | 51 | 275 | 0.0 | 1.0 | 0.00 | 0.01 | 0.01 | 1 | 1003.2 |
| 20260831111503 | 52 | 279 | 0.0 | 0.0 | 0.00 | 0.01 | 0.01 | 1 | 1002.9 |
| 20260831110059 | 52 | 278 | 0.0 | 2.0 | 0.00 | 0.01 | 0.01 | 1 | 1002.5 |
| 20260831104555 | 53 | 278 | 0.0 | 1.0 | 0.00 | 0.01 | 0.01 | 1 | 1002.4 |
| 20260831103050 | 54 | 279 | 0.0 | 1.0 | 0.00 | 0.01 | 0.01 | 1 | 1002.6 |
| 20260831101546 | 54 | 280 | 2.0 | 3.0 | 0.00 | 0.01 | 0.01 | 1 | 1002.5 |
| 20260831094537 | 55 | 280 | 2.0 | 4.0 | 0.00 | 0.01 | 0.01 | 1 | 1002.3 |
| 20260831093034 | 56 | 283 | 4.0 | 5.0 | 0.00 | 0.01 | 0.01 | 1 | 1002.4 |
| 20260831091528 | 57 | 282 | 3.0 | 5.0 | 0.00 | 0.01 | 0.01 | 1 | 1002.2 |
| 20260831090024 | 58 | 284 | 3.0 | 6.0 | 0.00 | 0.01 | 0.01 | 1 | 1002.0 |
| 20260831084519 | 59 | 281 | 4.0 | 6.0 | 0.00 | 0.05 | 0.01 | 1 | 1001.8 |
| 20260831083016 | 60 | 277 | 2.0 | 4.0 | 0.00 | 0.05 | 0.01 | 1 | 1001.5 |
| 20260831081511 | 61 | 289 | 5.0 | 7.0 | 0.00 | 0.05 | 0.01 | 1 | 1001.3 |
| 20260831080006 | 61 | 289 | 3.0 | 6.0 | 0.00 | 0.05 | 0.01 | 1 | 1001.4 |
| 20260831074504 | 61 | 268 | 0.0 | 0.0 | 0.00 | 0.11 | 0.01 | 1 | 1001.2 |
| 20260831073101 | 62 | 268 | 0.0 | 0.0 | 0.00 | 0.11 | 0.01 | 1 | 1001.1 |
| 20260831071607 | 63 | 268 | 0.0 | 3.0 | 0.00 | 0.11 | 0.01 | 1 | 1000.8 |
| 20260831070050 | 64 | 254 | 0.0 | 2.0 | 0.00 | 0.11 | 0.01 | 1 | 1001.0 |
| 20260831064644 | 65 | 244 | 1.0 | 2.0 | 0.01 | 0.12 | 0.01 | 1 | 1001.1 |
| 20260831063041 | 65 | 7 | 0.0 | 0.0 | 0.01 | 0.12 | 0.01 | 1 | 1000.5 |
| 20260831061540 | 66 | 8 | 0.0 | 0.0 | 0.01 | 0.12 | 0.01 | 1 | 1000.2 |
| 20260831060036 | 66 | 8 | 0.0 | 4.0 | 0.01 | 0.12 | 0.01 | 12 | 1000.0 |
| 20260831054528 | 67 | 338 | 1.0 | 6.0 | 0.00 | 0.11 | 0.00 | 27 | 1000.2 |
| 20260831053027 | 68 | 340 | 1.0 | 10.0 | 0.00 | 0.11 | 0.00 | 50 | 1000.1 |
| 20260831051524 | 68 | 333 | 3.0 | 6.0 | 0.00 | 0.11 | 0.00 | 46 | 999.9 |
| 20260831050022 | 68 | 313 | 9.0 | 17.0 | 0.00 | 0.11 | 0.00 | 35 | 1000.3 |
| 20260831044515 | 67 | 300 | 10.0 | 15.0 | 0.00 | 0.11 | 0.11 | 10 | 1000.4 |
| 20260831043013 | 68 | 306 | 10.0 | 15.0 | 0.00 | 0.11 | 0.11 | 20 | 999.7 |
| 20260831041507 | 69 | 316 | 9.0 | 19.0 | 0.00 | 0.11 | 0.11 | 21 | 999.1 |
| 20260831040008 | 71 | 308 | 9.0 | 19.0 | 0.00 | 0.11 | 0.11 | 2 | 998.7 |
| 20260831034600 | 72 | 306 | 7.0 | 14.0 | 0.00 | 0.11 | 0.11 | 1 | 998.7 |
| 20260831033111 | 71 | 299 | 6.0 | 10.0 | 0.00 | 0.11 | 0.11 | 1 | 998.5 |
| 20260831031558 | 72 | 306 | 5.0 | 8.0 | 0.00 | 0.11 | 0.11 | 1 | 998.7 |
| 20260831024602 | 72 | 312 | 5.0 | 8.0 | 0.00 | 0.11 | 0.11 | 1 | 998.7 |
| 20260831023056 | 72 | 325 | 3.0 | 7.0 | 0.00 | 0.11 | 0.11 | 1 | 998.3 |
| 20260831021553 | 72 | 321 | 1.0 | 3.0 | 0.00 | 0.11 | 0.11 | 1 | 997.8 |
| 20260831020049 | 73 | 321 | 0.0 | 0.0 | 0.00 | 0.11 | 0.11 | 1 | 997.4 |
| 20260831014544 | 73 | 321 | 0.0 | 1.0 | 0.00 | 0.11 | 0.11 | 1 | 997.3 |
| 20260831013052 | 74 | 321 | 1.0 | 4.0 | 0.00 | 0.11 | 0.11 | 1 | 997.1 |
| 20260831011536 | 75 | 319 | 2.0 | 3.0 | 0.00 | 0.11 | 0.11 | 1 | 996.7 |